Location: Unspecified
(0.0000°N, 0.0000°E)
Time: 14:58:04
(UTC+00:00)

Envisat - Pass Details

Date: 25 November 2020
Orbit: 764 x 766 km, 98.1° (Epoch: 28 November)

Event Time Altitude Azimuth Distance (km) Brightness Sun altitude
Rises 18:25:13 0° 196° (SSW) 3,230 6.8 -8.9°
Reaches altitude 10° 18:28:10 10° 214° (SW) 2,301 6.4 -9.6°
Maximum altitude 18:31:38 19° 257° (WSW) 1,774 6.1 -10.4°
Drops below altitude 10° 18:35:05 10° 301° (WNW) 2,294 6.0 -11.2°
Sets 18:38:03 0° 319° (NW) 3,216 6.5 -11.9°
